Regional Weather Roundup
Issued by NWS

Home | Current Version | Previous Version | Text Only | Print | Product List | Glossary On
Versions: 1 2 3 4 5 6 7 8 9 10 11 12 13 14 15 16 17 18 19 20 21 22 23 24 25 26 27 28 29 30 31 32 33 34 35 36 37 38 39 40 41 42 43 44 45 46 47 48 49 50
000
ASUS44 KEWX 211203
RWRTX
SOUTH TEXAS REGIONAL WEATHER ROUNDUP
NATIONAL WEATHER SERVICE AUSTIN/SAN ANTONIO TX
700 AM CDT TUE APR 21 2015

NOTE: "FAIR" INDICATED FEW OR NO CLOUDS BELOW 12,000 FEET WITH NO
SIGNIFICANT WEATHER AND/OR OBSTRUCTIONS TO VISIBILITY.

* - THESE STATIONS ARE NOT NWS OR FAA STATIONS...AND ARE NOT SUBJECT
    TO NWS AND FAA QUALITY CONTROL.

TXZ171-172-183>190-211300-
TEXAS HILL COUNTRY AND EDWARDS PLATEAU

CITY           SKY/WX    TMP DP  RH WIND       PRES   REMARKS
JUNCTION       CLEAR     49  45  86 E3        29.97S
6HR MIN TEMP:  49; 6HR MAX TEMP:  58;

*LLANO         CLEAR     46  45  93 CALM      30.03R
BURNET         CLEAR     54  43  66 E3        30.02R
6HR MIN TEMP:  52; 6HR MAX TEMP:  57;

*HORSESHOE BAY CLEAR     47  46  97 CALM      30.00R
6HR MIN TEMP:  47; 6HR MAX TEMP:  56;

*KERRVILLE     PTCLDY    46  45  94 CALM      29.99R
*FREDERICKSBRG CLEAR     46  45  96 CALM      29.99R
*ROCKSPRINGS   CLEAR     52  45  76 SE8       29.97F
*BOERNE STAGE  CLEAR     46  43  87 CALM      30.01R
*CASTROVILLE   CLEAR     50  49  97 CALM      30.00R
HONDO          PTCLDY    50  47  89 NE3       30.00R
6HR MIN TEMP:  49; 6HR MAX TEMP:  60;

*UVALDE        NOT AVBL
DEL RIO        CLEAR     57  48  72 E10       29.93R
6HR MIN TEMP:  57; 6HR MAX TEMP:  63;

LAUGHLIN AFB   CLEAR     55  49  80 E8        29.93S
6HR MIN TEMP:  55; 6HR MAX TEMP:  60;

CARRIZO SPRGS  CLEAR     54  52  94 CALM      29.94S
$$

TXZ173-191>194-202-209-217>225-228-211300-
CENTRAL AND SOUTH CENTRAL TEXAS

CITY           SKY/WX    TMP DP  RH WIND       PRES   REMARKS
GEORGETOWN     CLEAR     46  43  87 CALM      30.01R
AUSTIN/BERGSTM PTCLDY    49  49 100 CALM      30.00R
6HR MIN TEMP:  47; 6HR MAX TEMP:  54;

AUSTIN/MABRY   CLEAR     52  47  83 CALM      30.00R
6HR MIN TEMP:  51; 6HR MAX TEMP:  61;

*AUSTIN/EXEC   CLEAR     52  48  87 CALM      30.00R
*LAGO VISTA    CLEAR     53  45  74 NE5       30.00R
6HR MIN TEMP:  53; 6HR MAX TEMP:  56;

SAN MARCOS     CLEAR     50  46  87 N5        29.99R WCI  48
NEW BRAUNFELS  CLEAR     54  50  86 N3        29.98R
6HR MIN TEMP:  52; 6HR MAX TEMP:  60;

RANDOLPH AFB   CLEAR     52  50  94 N5        29.99R
6HR MIN TEMP:  52; 6HR MAX TEMP:  62;

PT SAN ANTONIO CLOUDY    55  52  91 N2        29.97R
6HR MIN TEMP:  52; 6HR MAX TEMP:  61;

SAN ANTONIO    PTCLDY    55  48  77 NW3       30.00R
6HR MIN TEMP:  53; 6HR MAX TEMP:  63;

STINSON FIELD  MOCLDY    54  51  90 CALM      29.98R
6HR MIN TEMP:  53; 6HR MAX TEMP:  62;

*PLEASANTON    PTCLDY    54  51  91 CALM      29.99R
6HR MIN TEMP:  54; 6HR MAX TEMP:  62;

*LA GRANGE     CLEAR     55  54  95 CALM      29.97R
*GIDDINGS      CLEAR     53  50  92 CALM      30.03R
6HR MIN TEMP:  53; 6HR MAX TEMP:  60;

*GONZALES      CLEAR     54  54  99 CALM      29.98R
$$

TXZ163>164-176>182-195>201-210>213-226-227-235-211300-
SOUTHEAST TEXAS

CITY           SKY/WX    TMP DP  RH WIND       PRES   REMARKS
COLLEGE STN    CLEAR     55  49  80 NE6       29.99R
6HR MIN TEMP:  55; 6HR MAX TEMP:  63;

*BRYAN         CLEAR     52  49  87 CALM      29.99S
*CALDWELL      CLEAR     54  48  82 CALM      30.02R
*CROCKETT      PTCLDY    61  52  72 NE3       30.03R
*BRENHAM       CLEAR     55  52  90 CALM      30.00R
6HR MIN TEMP:  55; 6HR MAX TEMP:  63;

HUNTSVILLE     CLEAR     52  50  93 E3        30.00R
6HR MIN TEMP:  52; 6HR MAX TEMP:  60;

CONROE         CLEAR     51  48  89 CALM      29.99S
6HR MIN TEMP:  50; 6HR MAX TEMP:  58;

HOUSTON BUSH   PTCLDY    56  52  86 E5        29.98S
6HR MIN TEMP:  56; 6HR MAX TEMP:  63;

HOUSTON HOBBY  PTCLDY    61  51  70 E7        29.98R
6HR MIN TEMP:  61; 6HR MAX TEMP:  66;

*HOUSTON SW AP PTCLDY    66  60  81 NE6       29.97S
PEARLAND       PTCLDY    61  55  81 E7        29.98S
6HR MIN TEMP:  61; 6HR MAX TEMP:  65;

HOUSTON HOOKS  PTCLDY    57  51  80 NE5       29.98
6HR MIN TEMP:  55; 6HR MAX TEMP:  63;

ELLINGTON FLD  PTCLDY    61  54  77 NE5       29.99R
SUGAR LAND     PTCLDY    62  49  62 E6        29.97R
6HR MIN TEMP:  59; 6HR MAX TEMP:  64;

*HOUSTON EXEC  PTCLDY    55  54  94 NE6       29.99R
*CLEVELAND MUN PTCLDY    52  51  98 CALM      30.01R
*WHARTON       CLEAR     58  55  89 NE3       29.96S
*COLUMBUS      FAIR      56  53  87 CALM      29.97R
$$

TXZ214>216-236>238-211300-
THE UPPER TEXAS COAST

CITY           SKY/WX    TMP DP  RH WIND       PRES   REMARKS
*ORANGE        CLEAR     55  47  74 CALM      30.02R
6HR MIN TEMP:  53; 6HR MAX TEMP:  59;

PORT ARTHUR    CLEAR     59  49  69 NE5       30.01R
6HR MIN TEMP:  59; 6HR MAX TEMP:  63;

GALVESTON      MOCLDY    66  57  72 NE12      29.97R
6HR MIN TEMP:  65; 6HR MAX TEMP:  68;

ANGLETON       MOCLDY    63  55  75 NE7       29.96R
6HR MIN TEMP:  61; 6HR MAX TEMP:  64;

*BAY CITY      CLEAR     64  59  82 E6        29.94S
PALACIOS       CLEAR     62  59  90 N8        29.96R
6HR MIN TEMP:  62; 6HR MAX TEMP:  67;

$$

TXZ229>234-239>247-211300-
TEXAS COASTAL BEND AND RIO GRANDE PLAINS

CITY           SKY/WX    TMP DP  RH WIND       PRES   REMARKS
VICTORIA       CLEAR     57  56  96 NW5       29.98R
6HR MIN TEMP:  57; 6HR MAX TEMP:  64; 6HR PCP: TRACE;

*BEEVILLE      CLEAR     57  56  96 N6        29.97R
6HR MIN TEMP:  57; 6HR MAX TEMP:  62;

ROCKPORT       PTCLDY    69  61  75 SE7       29.95R
6HR MIN TEMP:  62; 6HR MAX TEMP:  70;

*PORT ARANSAS  CLEAR     69  63  80 SE5       29.95R
6HR MIN TEMP:  64; 6HR MAX TEMP:  69;

*PORT LAVACA   CLEAR     62  59  90 NW7       29.96R
*INGLESIDE       N/A     66  62  86 CALM      29.94R
CORPUS CHRISTI MOCLDY    62  59  90 NW7       29.96R
6HR MIN TEMP:  61; 6HR MAX TEMP:  66;

CORPUS NAS     MOCLDY    70  63  78 E3        29.96R
6HR MIN TEMP:  65; 6HR MAX TEMP:  70;

*ROBSTOWN      PTCLDY    62  62  99 MISG      29.95R
ALICE          MOCLDY    62  57  83 N5        29.95R
6HR MIN TEMP:  61; 6HR MAX TEMP:  64;

KINGSVILLE NAS MOCLDY    63  61  93 N3        29.95R
6HR MIN TEMP:  61; 6HR MAX TEMP:  63;

COTULLA        CLOUDY    59  52  77 E7        29.96R
6HR MIN TEMP:  58; 6HR MAX TEMP:  64;

*FAITH RANCH   PTCLDY    57  54  88 E5        29.94S
LAREDO         MOCLDY    62  53  72 NE6       29.96S
6HR MIN TEMP:  61; 6HR MAX TEMP:  65;

$$

TXZ248>255-211300-
DEEP SOUTH TEXAS

CITY           SKY/WX    TMP DP  RH WIND       PRES   REMARKS
BROWNSVILLE    MOCLDY    70  67  90 NE8       29.90S
6HR MIN TEMP:  69; 6HR MAX TEMP:  70; 6HR PCP: TRACE;

PORT ISABEL    CLOUDY    71  69  93 NE10      29.91R
6HR MIN TEMP:  68; 6HR MAX TEMP:  71; 6HR PCP:  0.44;

*SOUTH PADRE     N/A    N/A N/A N/A MISG        N/A
HARLINGEN      CLOUDY    69  67  93 NE8       29.90R
6HR MIN TEMP:  66; 6HR MAX TEMP:  69;

*HEBBRONVILLE    N/A     59  55  85 NW3       29.96R
MCALLEN        CLOUDY    67  62  84 N5        29.92R
6HR MIN TEMP:  65; 6HR MAX TEMP:  71; 6HR PCP:  0.18;

*WESLACO       CLOUDY    65  63  92 NE5       29.91R
FALFURRIAS     MOCLDY    62  57  86 CALM      29.94R
6HR MIN TEMP:  61; 6HR MAX TEMP:  64;

EDINBURG       CLOUDY    66  62  87 N3        29.92R
6HR MIN TEMP:  64; 6HR MAX TEMP:  66; 6HR PCP:  0.01;

*ZAPATA        CLOUDY    64  56  75 CALM      29.93R
$$

TXZ213>215-236>238-242>244-246-247-251-254-255-211300-
CMAN STATIONS

STATION/POSITION TIME  TEMP    WIND        PRES    WAVE



USA.gov is the U.S. government's official web portal to all federal, state and local government web resources and services.